KINEIS-1A

Last updated on Mon Jun 22 2026 00:03:00 GMT+0000 (Coordinated Universal Time)

1 60084U 24114F 26172.52979714 .00000532 00000+0 75939-4 0 9998 2 60084 97.8917 195.9787 0005498 118.2954 241.8813 14.80644458108036
UTC large
Height (km)
Speed (km/s)
/
Latitude / Longitude
Inclination (degrees)
Orbital Period (minutes)
Azimuth
Elevation
Range (km)
Doppler Factor

Next 0 passes for location: London (51.5072 / 0.1276)

No passes found over London.
KINEIS-1A